{"data":{"norad_id":69327,"intl_designator":"2026-121C","name":"CZ-12B R/B","alt_names":[],"object_type":"ROCKET_BODY","status":"UNKNOWN","operator":null,"country":"PRC","launch_date":"2026-06-01","launch_site_code":"JSC","launch_vehicle":null,"mission":null,"orbit_class":"UNKNOWN","rcs_meters":null,"size_class":null,"mass_kg":null,"dimensions":null,"purposes":[],"wikipedia_slug":null,"has_3d_model":false,"image_url":null,"decayed_at":null,"tle_current":{"epoch":"2026-06-30T18:29:13.153632Z","epoch_age_seconds":7091555,"freshness":"OLD","line1":"1 69327U 26121C   26181.77029113  .00000591  00000+0  30990-3 0  9995","line2":"2 69327  89.0332 298.9727 0193715 323.7512  35.0669 14.04091603  4132","mean_motion":14.04091603,"eccentricity":0.0193715,"inclination_deg":89.0332,"raan_deg":298.9727,"arg_perigee_deg":323.7512,"mean_anomaly_deg":35.0669,"bstar":0.0003099,"rev_number":413,"period_min":102.55741127739,"perigee_km":739.06661890203,"apogee_km":1020.2554889044,"semimajor_km":7257.7980539032,"source":"CELESTRAK","updated_at":"2026-07-01T09:00:33.260497Z"}}}